, AK

(GMT )
Annette Island

Weather History for PANT - September, 2013

Change the Weather History Date:

Wednesday, September 18, 2013

  Actual Average Record
Temperature  
Mean Temperature 55 °F 53 °F  
Max Temperature 60 °F 59 °F 72 °F (1969)
Min Temperature 49 °F 48 °F 38 °F (1978)
Degree Days  
Heating Degree Days 10 12  
Month to date heating degree days 91 179  
Since 1 July heating degree days 393 580  
Cooling Degree Days 0    
Month to date cooling degree days 0  
Year to date cooling degree days 22  
Growing Degree Days 4 (Base 50)    
Moisture  
Dew Point 51 °F    
Average Humidity 0    
Maximum Humidity 0    
Minimum Humidity 0    
Precipitation  
Precipitation 0.00 in 0.32 in 2.14 in (1958)
Month to date precipitation 0.73 5.56  
Year to date precipitation 52.33 60.47  
Snow  
Snow 0.00 in 0.00 in 0.00 in (2015)
Month to date snowfall 0.0 0.0  
Since 1 July snowfall 0.0 0.0  
Since 1 September snowfall 0.0 0.0  
Snow Depth 0.00 in    
Sea Level Pressure  
Sea Level Pressure 29.83 in    
Wind  
Wind Speed 6 mph (SE)    
Max Wind Speed 13 mph    
Max Gust Speed 16 mph    
Visibility 10 miles    
Events Rain    
T = Trace of Precipitation, MM = Missing Value Source: NWS Daily Summary

Daily Weather History Graph

Daily Weather History Graph

Search for Another Location

Airport or City:

Trip Planner

Search our weather history database for the weather conditions in past years. The results will help you decide how hot, cold, wet, or windy it might be!

Date:

Astronomy

Sep. 18, 2013 Rise Set
Actual Time 6:25 AM AKDT 6:54 PM AKDT
Civil Twilight 5:48 AM AKDT 7:30 PM AKDT
Nautical Twilight 5:04 AM AKDT 8:14 PM AKDT
Astronomical Twilight 4:18 AM AKDT 9:00 PM AKDT
Moon 6:16 PM AKDT (9/18) 5:34 AM AKDT (9/18)
Length of Visible Light 13h 42m
Length of Day
12h 29m
Waxing Gibbous, 99% of the Moon is Illuminated
Sep 18
Waxing Gibbous
Sep 19
Full
Sep 26
Last Quarter
Oct 4
New
Oct 11
First Quarter

Hourly Weather History & Observations

Time (AKDT) Temp. Dew Point Humidity Pressure Visibility Wind Dir Wind Speed Gust Speed Precip Events Conditions
12:01 AM 53.6 °F 51.8 °F 94% 29.83 in 10.0 mi ESE 4.6 mph - N/A   Mostly Cloudy
12:53 AM 52.0 °F 52.0 °F 100% 29.83 in 10.0 mi SE 3.5 mph - N/A   Mostly Cloudy
1:02 AM 53.6 °F 51.8 °F 94% 29.83 in 10.0 mi SE 4.6 mph - N/A   Scattered Clouds
1:15 AM 53.6 °F 51.8 °F 94% 29.84 in 10.0 mi Calm Calm - N/A   Mostly Cloudy
1:42 AM 51.8 °F 51.8 °F 100% 29.84 in 10.0 mi ESE 3.5 mph - N/A   Partly Cloudy
1:53 AM 51.1 °F 51.1 °F 100% 29.84 in 10.0 mi Calm Calm - N/A   Partly Cloudy
2:53 AM 48.9 °F 48.9 °F 100% 29.85 in 10.0 mi Calm Calm - N/A   Mostly Cloudy
3:53 AM 51.1 °F 50.0 °F 96% 29.86 in 10.0 mi SE 3.5 mph - N/A   Mostly Cloudy
4:20 AM 51.8 °F 51.8 °F 100% 29.85 in 10.0 mi SE 3.5 mph - N/A   Mostly Cloudy
4:34 AM 51.8 °F 51.8 °F 100% 29.85 in 10.0 mi SE 4.6 mph - N/A   Mostly Cloudy
4:51 AM 51.8 °F 51.8 °F 100% 29.85 in 10.0 mi SE 3.5 mph - N/A   Mostly Cloudy
4:53 AM 52.0 °F 51.1 °F 97% 29.86 in 10.0 mi SE 3.5 mph - N/A   Scattered Clouds
5:02 AM 51.8 °F 51.8 °F 100% 29.85 in 10.0 mi SE 3.5 mph - N/A   Mostly Cloudy
5:51 AM 51.8 °F 51.8 °F 100% 29.86 in 10.0 mi SE 5.8 mph - N/A   Mostly Cloudy
5:53 AM 52.0 °F 51.1 °F 97% 29.86 in 10.0 mi SE 5.8 mph - N/A   Mostly Cloudy
6:34 AM 51.8 °F 51.8 °F 100% 29.86 in 10.0 mi SE 5.8 mph - N/A   Scattered Clouds
6:44 AM 51.8 °F 51.8 °F 100% 29.86 in 10.0 mi SE 8.1 mph - N/A   Mostly Cloudy
6:51 AM 51.8 °F 51.8 °F 100% 29.86 in 10.0 mi SE 6.9 mph - N/A   Mostly Cloudy
6:53 AM 52.0 °F 51.1 °F 97% 29.87 in 10.0 mi SE 8.1 mph - N/A   Mostly Cloudy
7:51 AM 53.6 °F 51.8 °F 94% 29.87 in 10.0 mi SE 9.2 mph - N/A   Overcast
7:53 AM 53.1 °F 51.1 °F 93% 29.88 in 10.0 mi ESE 10.4 mph - N/A   Overcast
8:23 AM 53.6 °F 51.8 °F 94% 29.87 in 10.0 mi ESE 10.4 mph - N/A   Scattered Clouds
8:31 AM 53.6 °F 51.8 °F 94% 29.88 in 10.0 mi ESE 9.2 mph - N/A   Mostly Cloudy
8:53 AM 54.0 °F 51.1 °F 90% 29.88 in 10.0 mi ESE 9.2 mph - N/A   Overcast
9:53 AM 55.9 °F 50.0 °F 80% 29.89 in 10.0 mi ESE 9.2 mph - N/A   Mostly Cloudy
10:53 AM 57.0 °F 51.1 °F 81% 29.89 in 10.0 mi SE 11.5 mph - N/A   Mostly Cloudy
11:50 AM 57.2 °F 50.0 °F 77% 29.88 in 10.0 mi SE 9.2 mph - N/A   Overcast
11:53 AM 57.0 °F 50.0 °F 77% 29.89 in 10.0 mi SE 8.1 mph - N/A   Overcast
12:08 PM 57.2 °F 51.8 °F 82% 29.88 in 10.0 mi SSE 6.9 mph - N/A   Overcast
12:53 PM 57.9 °F 50.0 °F 75% 29.88 in 10.0 mi SE 8.1 mph - N/A   Overcast
1:53 PM 59.0 °F 50.0 °F 72% 29.87 in 10.0 mi SE 10.4 mph - N/A   Overcast
2:51 PM 60.8 °F 50.0 °F 68% 29.86 in 10.0 mi SE 8.1 mph - N/A   Overcast
2:53 PM 60.1 °F 50.0 °F 69% 29.86 in 10.0 mi SE 8.1 mph - N/A   Overcast
3:25 PM 59.0 °F 50.0 °F 72% 29.85 in 10.0 mi SE 8.1 mph - N/A   Overcast
3:53 PM 59.0 °F 50.0 °F 72% 29.85 in 10.0 mi SE 8.1 mph - N/A   Overcast
5:16 PM 57.2 °F 50.0 °F 77% 29.82 in 10.0 mi ESE 8.1 mph - N/A   Overcast
5:26 PM 57.2 °F 50.0 °F 77% 29.82 in 10.0 mi SE 10.4 mph 17.3 mph N/A   Overcast
5:34 PM 57.2 °F 50.0 °F 77% 29.82 in 10.0 mi ESE 10.4 mph - 0.00 in Rain Light Rain
5:51 PM 55.4 °F 51.8 °F 88% 29.82 in 10.0 mi ESE 6.9 mph - 0.00 in Rain Light Rain
5:53 PM 55.9 °F 51.1 °F 84% 29.82 in 10.0 mi ESE 5.8 mph - 0.00 in Rain Light Rain
6:53 PM 54.0 °F 52.0 °F 93% 29.81 in 10.0 mi ESE 12.7 mph 18.4 mph 0.04 in Rain Light Rain
7:38 PM 55.4 °F 51.8 °F 88% 29.80 in 10.0 mi ESE 12.7 mph 19.6 mph 0.01 in Rain Light Rain
7:51 PM 55.4 °F 51.8 °F 88% 29.79 in 8.0 mi SE 11.5 mph - 0.02 in Rain Rain
7:53 PM 55.0 °F 53.1 °F 93% 29.80 in 7.0 mi ESE 11.5 mph - 0.02 in Rain Rain
8:14 PM 55.4 °F 53.6 °F 94% 29.78 in 10.0 mi ESE 12.7 mph - 0.03 in Rain Light Rain
8:24 PM 55.4 °F 51.8 °F 88% 29.78 in 10.0 mi ESE 11.5 mph 20.7 mph 0.03 in Rain Light Rain
8:51 PM 55.4 °F 51.8 °F 88% 29.77 in 10.0 mi ESE 11.5 mph 19.6 mph 0.05 in Rain Light Rain
8:53 PM 55.0 °F 51.1 °F 86% 29.77 in 10.0 mi ESE 12.7 mph 21.9 mph 0.05 in Rain Light Rain
9:08 PM 55.4 °F 51.8 °F 88% 29.76 in 10.0 mi ESE 12.7 mph 23.0 mph 0.00 in Rain Light Rain
9:28 PM 55.4 °F 51.8 °F 88% 29.76 in 10.0 mi ESE 12.7 mph 24.2 mph 0.00 in Rain Light Rain
9:53 PM 55.0 °F 52.0 °F 89% 29.76 in 10.0 mi SE 13.8 mph 21.9 mph 0.01 in Rain Light Rain
10:12 PM 53.6 °F 51.8 °F 94% 29.76 in 10.0 mi SE 15.0 mph 21.9 mph 0.02 in Rain Light Rain
10:53 PM 54.0 °F 50.0 °F 86% 29.73 in 10.0 mi ESE 13.8 mph 24.2 mph 0.05 in Rain Light Rain
11:53 PM 55.0 °F 48.9 °F 80% 29.69 in 10.0 mi ESE 15.0 mph 26.5 mph 0.03 in Rain Light Rain